Back to catalog

THORAD AGENA D DEB

AlivePO
NORAD 19667·DEBRIS·🇺🇸 United States

Launched Apr 8, 1970 from Vandenberg Space Force Base

Loading…

Next Passes (next 24 hours)

TLE

FreshSource: Space-Track

Epoch: Sep 14, 2026, 16:14 UTC

1 19667U 70025QC  26257.67685185  .00000108  00000-0  46273-3 0  9995
2 19667  99.7367 153.2768 0338005 293.9352  89.6972 12.86347103793360

Track THORAD AGENA D DEB in real time with AllMySat

Download on the App Store